When you browse on this site, cookies collect data to enhance your experience and personalize the content and advertising you see.
Visit our Privacy Policy to learn more. By continuing to use the site, you agree to this use of cookies and data.
  • Em Portugal
  • Lista de países
  • Para 7 dias
  • Temperatura da água
  • Mapa do tempo
  • Widgets de tempo
  • user-avatar
    Iniciar Sessão

    Previsão horária em Letnik

    Hoje, 3 Junho, Quarta-feira

    Tempo Temperatura Precipitação Vento Pressão Humidade
    00:00 +13°C° 0 mm 3 m/s 731 mmHg 88%
    01:00 +12°C° 0.3 mm 3 m/s 731 mmHg 89%
    02:00 +13°C° 0.3 mm 2 m/s 731 mmHg 90%
    03:00 +12°C° 0.3 mm 2 m/s 731 mmHg 90%
    04:00 +12°C° 0.2 mm 3 m/s 730 mmHg 89%
    05:00 +13°C° 0.2 mm 3 m/s 730 mmHg 87%
    06:00 +15°C° 0 mm 4 m/s 730 mmHg 88%
    07:00 +16°C° 0.5 mm 5 m/s 730 mmHg 84%
    08:00 +16°C° 0.5 mm 5 m/s 730 mmHg 81%
    09:00 +17°C° 0.5 mm 6 m/s 730 mmHg 77%
    10:00 +17°C° 0.9 mm 6 m/s 730 mmHg 75%
    11:00 +18°C° 0.9 mm 7 m/s 730 mmHg 72%
    12:00 +18°C° 0.9 mm 7 m/s 731 mmHg 70%
    13:00 +17°C° 0.6 mm 6 m/s 731 mmHg 70%
    14:00 +17°C° 0.6 mm 5 m/s 732 mmHg 70%
    15:00 +16°C° 0.6 mm 5 m/s 732 mmHg 70%
    16:00 +17°C° 0.3 mm 4 m/s 733 mmHg 72%
    17:00 +16°C° 0.3 mm 3 m/s 733 mmHg 74%
    18:00 +14°C° 0.3 mm 3 m/s 733 mmHg 75%
    19:00 +14°C° 0.1 mm 2 m/s 734 mmHg 77%
    20:00 +13°C° 0.1 mm 2 m/s 734 mmHg 78%
    21:00 +12°C° 0.1 mm 1 m/s 735 mmHg 79%
    22:00 +11°C° 0 mm 1 m/s 735 mmHg 81%
    23:00 +11°C° 0 mm 1 m/s 735 mmHg 82%

    Amanhã, 4 Junho, Quinta-feira

    Tempo Temperatura Precipitação Vento Pressão Humidade
    00:00 +10°C° 0 mm 1 m/s 735 mmHg 84%
    01:00 +10°C° 0 mm 1 m/s 735 mmHg 85%
    02:00 +9°C° 0 mm 1 m/s 734 mmHg 86%
    03:00 +8°C° 0 mm 0 m/s 734 mmHg 87%
    04:00 +9°C° 0 mm 0 m/s 734 mmHg 85%
    05:00 +10°C° 0 mm 0 m/s 734 mmHg 83%
    06:00 +11°C° 0 mm 0 m/s 733 mmHg 81%
    07:00 +13°C° 0 mm 1 m/s 733 mmHg 78%
    08:00 +14°C° 0 mm 1 m/s 732 mmHg 75%
    09:00 +15°C° 0 mm 1 m/s 732 mmHg 72%
    10:00 +15°C° 0.2 mm 1 m/s 732 mmHg 68%
    11:00 +16°C° 0.2 mm 1 m/s 731 mmHg 65%
    12:00 +18°C° 0.2 mm 1 m/s 731 mmHg 61%
    13:00 +18°C° 0.2 mm 1 m/s 731 mmHg 60%
    14:00 +19°C° 0.2 mm 1 m/s 731 mmHg 60%
    15:00 +19°C° 0.2 mm 1 m/s 730 mmHg 59%
    16:00 +19°C° 0.7 mm 1 m/s 730 mmHg 65%
    17:00 +18°C° 0.7 mm 1 m/s 730 mmHg 70%
    18:00 +16°C° 0.7 mm 1 m/s 730 mmHg 76%
    19:00 +15°C° 0.1 mm 1 m/s 730 mmHg 78%
    20:00 +13°C° 0.1 mm 1 m/s 730 mmHg 81%
    21:00 +12°C° 0.1 mm 1 m/s 730 mmHg 84%
    22:00 +11°C° 0 mm 1 m/s 730 mmHg 85%
    23:00 +11°C° 0 mm 1 m/s 730 mmHg 86%

    Depois de amanhã, 5 Junho, Sexta-feira

    Tempo Temperatura Precipitação Vento Pressão Humidade
    00:00 +10°C° 0 mm 1 m/s 730 mmHg 87%
    01:00 +10°C° 0 mm 1 m/s 729 mmHg 88%
    02:00 +9°C° 0 mm 1 m/s 729 mmHg 89%
    03:00 +9°C° 0 mm 1 m/s 729 mmHg 90%
    04:00 +10°C° 0 mm 1 m/s 728 mmHg 88%
    05:00 +10°C° 0 mm 0 m/s 728 mmHg 87%
    06:00 +11°C° 0 mm 0 m/s 728 mmHg 85%
    07:00 +10°C° 0.6 mm 2 m/s 728 mmHg 87%
    08:00 +10°C° 0.6 mm 3 m/s 727 mmHg 90%
    09:00 +9°C° 0.6 mm 5 m/s 727 mmHg 93%
    10:00 +9°C° 1.1 mm 5 m/s 727 mmHg 93%
    11:00 +8°C° 1.1 mm 5 m/s 727 mmHg 92%
    12:00 +8°C° 1.1 mm 5 m/s 727 mmHg 92%
    13:00 +9°C° 0.2 mm 5 m/s 728 mmHg 90%
    14:00 +9°C° 0.2 mm 5 m/s 728 mmHg 88%
    15:00 +10°C° 0.2 mm 5 m/s 728 mmHg 87%
    16:00 +9°C° 0.6 mm 6 m/s 729 mmHg 88%
    17:00 +9°C° 0.6 mm 6 m/s 729 mmHg 90%
    18:00 +8°C° 0.6 mm 7 m/s 729 mmHg 92%
    19:00 +8°C° 0.9 mm 6 m/s 729 mmHg 92%
    20:00 +8°C° 0.9 mm 6 m/s 729 mmHg 93%
    21:00 +7°C° 0.9 mm 6 m/s 729 mmHg 94%
    22:00 +6°C° 1.6 mm 7 m/s 730 mmHg 94%
    23:00 +6°C° 1.6 mm 7 m/s 730 mmHg 94%

    6 Junho, Sábado

    Tempo Temperatura Precipitação Vento Pressão Humidade
    00:00 +6°C° 1.6 mm 8 m/s 730 mmHg 94%
    01:00 +6°C° 5.1 mm 8 m/s 730 mmHg 94%
    02:00 +6°C° 5.1 mm 9 m/s 730 mmHg 95%
    03:00 +6°C° 5.1 mm 9 m/s 730 mmHg 95%
    04:00 +6°C° 2.9 mm 8 m/s 731 mmHg 94%
    05:00 +6°C° 2.9 mm 8 m/s 731 mmHg 94%
    06:00 +6°C° 2.9 mm 7 m/s 732 mmHg 93%
    07:00 +6°C° 1 mm 7 m/s 732 mmHg 93%
    08:00 +6°C° 1 mm 7 m/s 733 mmHg 92%
    09:00 +8°C° 1 mm 7 m/s 733 mmHg 91%
    10:00 +8°C° 0.2 mm 7 m/s 734 mmHg 88%
    11:00 +9°C° 0.2 mm 7 m/s 734 mmHg 85%
    12:00 +10°C° 0.2 mm 8 m/s 735 mmHg 81%
    13:00 +10°C° 0.6 mm 7 m/s 735 mmHg 83%
    14:00 +9°C° 0.6 mm 7 m/s 735 mmHg 86%
    15:00 +8°C° 0.6 mm 7 m/s 735 mmHg 88%
    16:00 +9°C° 0.1 mm 7 m/s 736 mmHg 87%
    17:00 +9°C° 0.1 mm 6 m/s 736 mmHg 86%
    18:00 +10°C° 0.1 mm 6 m/s 736 mmHg 85%
    19:00 +9°C° 0.2 mm 5 m/s 736 mmHg 87%
    20:00 +9°C° 0.2 mm 5 m/s 737 mmHg 89%
    21:00 +8°C° 0.2 mm 5 m/s 737 mmHg 91%
    22:00 +8°C° 0.7 mm 5 m/s 737 mmHg 91%
    23:00 +8°C° 0.7 mm 5 m/s 737 mmHg 92%

    7 Junho, Domingo

    Tempo Temperatura Precipitação Vento Pressão Humidade
    00:00 +8°C° 0.7 mm 5 m/s 737 mmHg 93%
    01:00 +8°C° 0.2 mm 5 m/s 737 mmHg 93%
    02:00 +8°C° 0.2 mm 4 m/s 736 mmHg 93%
    03:00 +8°C° 0.2 mm 4 m/s 736 mmHg 93%
    04:00 +8°C° 0.4 mm 4 m/s 736 mmHg 93%
    05:00 +8°C° 0.4 mm 4 m/s 736 mmHg 93%
    06:00 +10°C° 0.4 mm 4 m/s 736 mmHg 93%
    07:00 +11°C° 0.4 mm 4 m/s 736 mmHg 90%
    08:00 +12°C° 0.4 mm 4 m/s 735 mmHg 87%
    09:00 +13°C° 0.4 mm 4 m/s 735 mmHg 84%
    10:00 +12°C° 1.4 mm 5 m/s 735 mmHg 87%
    11:00 +12°C° 1.4 mm 5 m/s 734 mmHg 89%
    12:00 +10°C° 1.4 mm 5 m/s 734 mmHg 91%
    13:00 +12°C° 0.4 mm 4 m/s 734 mmHg 88%
    14:00 +13°C° 0.4 mm 3 m/s 734 mmHg 85%
    15:00 +14°C° 0.4 mm 3 m/s 734 mmHg 82%
    16:00 +14°C° 0.6 mm 3 m/s 734 mmHg 83%
    17:00 +13°C° 0.6 mm 3 m/s 734 mmHg 84%
    18:00 +13°C° 0.6 mm 3 m/s 734 mmHg 85%
    19:00 +12°C° 0.5 mm 3 m/s 735 mmHg 86%
    20:00 +12°C° 0.5 mm 2 m/s 735 mmHg 88%
    21:00 +11°C° 0.5 mm 1 m/s 735 mmHg 89%
    22:00 +10°C° 0.5 mm 2 m/s 736 mmHg 91%
    23:00 +10°C° 0.5 mm 2 m/s 736 mmHg 92%

    8 Junho, Segunda-feira

    Tempo Temperatura Precipitação Vento Pressão Humidade
    00:00 +9°C° 0.5 mm 3 m/s 736 mmHg 94%
    01:00 +9°C° 0.4 mm 2 m/s 736 mmHg 94%
    02:00 +9°C° 0.4 mm 2 m/s 736 mmHg 94%
    03:00 +8°C° 0.4 mm 2 m/s 736 mmHg 94%
    04:00 +9°C° 0.2 mm 2 m/s 736 mmHg 93%
    05:00 +9°C° 0.2 mm 2 m/s 736 mmHg 92%
    06:00 +9°C° 0.2 mm 3 m/s 736 mmHg 91%
    07:00 +10°C° 0.3 mm 3 m/s 736 mmHg 85%
    08:00 +11°C° 0.3 mm 3 m/s 736 mmHg 79%
    09:00 +12°C° 0.3 mm 3 m/s 736 mmHg 74%
    10:00 +13°C° 0.3 mm 3 m/s 736 mmHg 70%
    11:00 +14°C° 0.3 mm 3 m/s 736 mmHg 65%
    12:00 +16°C° 0.3 mm 3 m/s 735 mmHg 61%
    13:00 +16°C° 0.8 mm 3 m/s 735 mmHg 64%
    14:00 +16°C° 0.8 mm 3 m/s 735 mmHg 66%
    15:00 +16°C° 0.8 mm 3 m/s 735 mmHg 68%
    16:00 +15°C° 0.6 mm 2 m/s 735 mmHg 71%
    17:00 +15°C° 0.6 mm 2 m/s 736 mmHg 74%
    18:00 +15°C° 0.6 mm 1 m/s 736 mmHg 77%
    19:00 +13°C° 0.2 mm 1 m/s 736 mmHg 78%
    20:00 +12°C° 0.2 mm 1 m/s 737 mmHg 79%
    21:00 +10°C° 0.2 mm 2 m/s 737 mmHg 81%
    22:00 +9°C° 0 mm 2 m/s 737 mmHg 83%
    23:00 +8°C° 0 mm 2 m/s 737 mmHg 84%
    Mostrar mais